sat.trackr.live / text

‹ back to catalog

STARLINK-3458

NORAD 51758 · 2022-016AW

PAYLOAD ACTIVE UNKNOWN

§ Identity

Operator
Country
US
Launch date
2022-02-21
Launch site
AFETR
Launch vehicle
Mass (kg)
RCS (m²)

Purposes: comms

External: N2YO · Heavens-Above · Gunter

§ Orbital elements

Epoch: 2026-09-20T02:28:34.889376Z

Period
93.79 min
Inclination
53.1591°
Eccentricity
0.0001117
Mean motion
15.35397495 rev/d
Perigee alt
459.0 km
Apogee alt
460.5 km
Semi-major
6,837.9 km
B*
5.5686e-5
RAAN
141.3012°
Arg perigee
93.9307°
Mean anomaly
266.1824°
Rev number
25,440

§ Raw data

STARLINK-34581 51758U 22016AW  26263.10318159  .00001562  00000+0  55686-4 0  99912 51758  53.1591 141.3012 0001117  93.9307 266.1824 15.35397495254400

JSON: /api/v1/satellites/51758 · /tle

For live sub-satellite position, see the globe view (requires WebGL).

§ Visibility from observer

Set your observer location to see the next 7 days of passes ≥ 10°. The values pass through the URL so the page stays shareable.

No JS? Fill the form by hand. The geolocation button needs JavaScript.